| time (UTC) | temp F | wind direction | speed knots | gust knots | rain 1hr in | rain 24hr in | rain mn in | humidity % | barometer mb |
| 20260906231819 | 92 | 170 | 0.0 | 0.0 | 0.00 | 0.00 | 0.00 | 48 | 1013.4 |
| 20260906231537 | 92 | 158 | 0.0 | 0.0 | 0.00 | 0.00 | 0.00 | 48 | 1010.5 |
| 20260906231318 | 92 | 192 | 0.0 | 0.0 | 0.00 | 0.00 | 0.00 | 48 | 1013.5 |
| 20260906231029 | 92 | 122 | 0.0 | 0.0 | 0.00 | 0.00 | 0.00 | 48 | 1010.6 |
| 20260906230818 | 93 | 147 | 0.0 | 0.0 | 0.00 | 0.00 | 0.00 | 47 | 1013.5 |
| 20260906230522 | 92 | 132 | 0.0 | 0.0 | 0.00 | 0.00 | 0.00 | 47 | 1010.5 |
| 20260906230318 | 93 | 161 | 0.0 | 0.0 | 0.00 | 0.00 | 0.00 | 48 | 1013.5 |
| 20260906230016 | 92 | 113 | 0.0 | 0.0 | 0.00 | 0.00 | 0.00 | 48 | 1010.5 |
| 20260906225836 | 93 | 156 | 0.0 | 0.0 | 0.00 | 0.00 | 0.00 | 47 | 1013.4 |
| 20260906225544 | 92 | 168 | 0.0 | 0.0 | 0.00 | 0.00 | 0.00 | 48 | 1010.5 |
| 20260906225328 | 93 | 73 | 0.0 | 0.0 | 0.00 | 0.00 | 0.00 | 48 | 1013.4 |
| 20260906225039 | 92 | 183 | 0.0 | 0.0 | 0.00 | 0.00 | 0.00 | 48 | 1010.6 |
| 20260906224828 | 93 | 160 | 0.0 | 0.0 | 0.00 | 0.00 | 0.00 | 48 | 1013.6 |
| 20260906224530 | 92 | 152 | 0.0 | 0.0 | 0.00 | 0.00 | 0.00 | 48 | 1010.6 |
| 20260906224325 | 93 | 143 | 0.0 | 0.0 | 0.00 | 0.00 | 0.00 | 48 | 1013.4 |
| 20260906224011 | 92 | 142 | 0.0 | 0.0 | 0.00 | 0.00 | 0.00 | 49 | 1010.6 |
| 20260906223842 | 93 | 131 | 0.0 | 0.0 | 0.00 | 0.00 | 0.00 | 48 | 1013.5 |
| 20260906223544 | 92 | 175 | 0.0 | 0.0 | 0.00 | 0.00 | 0.00 | 49 | 1010.7 |
| 20260906223320 | 93 | 117 | 0.0 | 0.0 | 0.00 | 0.00 | 0.00 | 48 | 1013.6 |
| 20260906223044 | 93 | 172 | 0.0 | 0.0 | 0.00 | 0.00 | 0.00 | 47 | 1010.7 |
| 20260906222839 | 93 | 195 | 0.0 | 0.0 | 0.00 | 0.00 | 0.00 | 47 | 1013.7 |
| 20260906222526 | 93 | 143 | 0.0 | 0.0 | 0.00 | 0.00 | 0.00 | 46 | 1010.7 |
| 20260906222330 | 93 | 177 | 0.0 | 0.0 | 0.00 | 0.00 | 0.00 | 47 | 1013.6 |
| 20260906222008 | 93 | 157 | 0.0 | 0.0 | 0.00 | 0.00 | 0.00 | 47 | 1010.8 |
| 20260906221826 | 93 | 241 | 0.0 | 0.0 | 0.00 | 0.00 | 0.00 | 48 | 1013.7 |
| 20260906221602 | 93 | 240 | 0.0 | 0.0 | 0.00 | 0.00 | 0.00 | 47 | 1010.8 |
| 20260906221325 | 93 | 179 | 0.0 | 0.0 | 0.00 | 0.00 | 0.00 | 47 | 1013.8 |
| 20260906221056 | 93 | 226 | 0.0 | 0.0 | 0.00 | 0.00 | 0.00 | 48 | 1010.8 |
| 20260906220822 | 93 | 213 | 0.0 | 0.0 | 0.00 | 0.00 | 0.00 | 48 | 1013.9 |
| 20260906220544 | 92 | 246 | 0.0 | 0.0 | 0.00 | 0.00 | 0.00 | 48 | 1010.9 |
| 20260906220320 | 93 | 221 | 0.0 | 0.0 | 0.00 | 0.00 | 0.00 | 49 | 1013.9 |
| 20260906220041 | 92 | 233 | 0.0 | 0.0 | 0.00 | 0.00 | 0.00 | 49 | 1010.8 |
| 20260906215818 | 92 | 244 | 0.0 | 0.0 | 0.00 | 0.00 | 0.00 | 49 | 1013.9 |
| 20260906215533 | 91 | 235 | 0.0 | 0.0 | 0.00 | 0.00 | 0.00 | 49 | 1010.9 |
| 20260906215316 | 92 | 144 | 0.0 | 0.0 | 0.00 | 0.00 | 0.00 | 49 | 1013.9 |
| 20260906215027 | 91 | 144 | 0.0 | 0.0 | 0.00 | 0.00 | 0.00 | 49 | 1011.0 |
| 20260906214833 | 91 | 143 | 0.0 | 0.0 | 0.00 | 0.00 | 0.00 | 49 | 1014.0 |
| 20260906214513 | 91 | 144 | 0.0 | 0.0 | 0.00 | 0.00 | 0.00 | 49 | 1010.9 |
| 20260906214351 | 92 | 126 | 0.0 | 0.0 | 0.00 | 0.00 | 0.00 | 49 | 1014.0 |
| 20260906214045 | 91 | 122 | 0.0 | 0.0 | 0.00 | 0.00 | 0.00 | 49 | 1011.0 |
| 20260906213829 | 92 | 118 | 0.0 | 0.0 | 0.00 | 0.00 | 0.00 | 50 | 1014.0 |
| 20260906213537 | 92 | 112 | 0.0 | 0.0 | 0.00 | 0.00 | 0.00 | 49 | 1011.2 |
| 20260906213327 | 92 | 153 | 0.0 | 0.0 | 0.00 | 0.00 | 0.00 | 49 | 1014.1 |
| 20260906213030 | 92 | 155 | 0.0 | 0.0 | 0.00 | 0.00 | 0.00 | 49 | 1011.2 |
| 20260906212825 | 93 | 161 | 0.0 | 0.0 | 0.00 | 0.00 | 0.00 | 49 | 1014.2 |
| 20260906212513 | 92 | 160 | 0.0 | 0.0 | 0.00 | 0.00 | 0.00 | 49 | 1011.2 |
| 20260906212323 | 93 | 91 | 0.0 | 0.0 | 0.00 | 0.00 | 0.00 | 49 | 1014.4 |
| 20260906212005 | 92 | 181 | 0.0 | 0.0 | 0.00 | 0.00 | 0.00 | 50 | 1011.3 |
| 20260906211841 | 92 | 173 | 0.0 | 0.0 | 0.00 | 0.00 | 0.00 | 50 | 1014.2 |
| 20260906211537 | 92 | 150 | 0.0 | 0.0 | 0.00 | 0.00 | 0.00 | 50 | 1011.3 |
| 20260906211338 | 92 | 343 | 0.0 | 0.0 | 0.00 | 0.00 | 0.00 | 51 | 1014.4 |
| 20260906211102 | 91 | 135 | 0.0 | 0.0 | 0.00 | 0.00 | 0.00 | 51 | 1011.4 |
| 20260906210835 | 91 | 272 | 0.0 | 0.0 | 0.00 | 0.00 | 0.00 | 51 | 1014.5 |
| 20260906210532 | 91 | 292 | 0.0 | 0.0 | 0.00 | 0.00 | 0.00 | 51 | 1011.4 |
| 20260906210332 | 91 | 308 | 0.0 | 0.0 | 0.00 | 0.00 | 0.00 | 51 | 1014.5 |
| 20260906210013 | 91 | 308 | 0.0 | 0.0 | 0.00 | 0.00 | 0.00 | 51 | 1011.4 |
| 20260906205829 | 92 | 308 | 0.0 | 0.0 | 0.00 | 0.00 | 0.00 | 51 | 1014.6 |
| 20260906205545 | 91 | 212 | 0.0 | 0.0 | 0.00 | 0.00 | 0.00 | 51 | 1011.7 |
| 20260906205327 | 92 | 204 | 0.0 | 0.0 | 0.00 | 0.00 | 0.00 | 51 | 1014.8 |
| 20260906205037 | 91 | 217 | 0.0 | 0.0 | 0.00 | 0.00 | 0.00 | 51 | 1011.8 |
| 20260906204825 | 92 | 211 | 0.0 | 0.0 | 0.00 | 0.00 | 0.00 | 52 | 1014.8 |
| 20260906204550 | 91 | 243 | 0.0 | 0.0 | 0.00 | 0.00 | 0.00 | 52 | 1011.8 |
| 20260906204343 | 92 | 114 | 0.0 | 0.0 | 0.00 | 0.00 | 0.00 | 52 | 1014.7 |
| 20260906204055 | 91 | 196 | 0.0 | 0.0 | 0.00 | 0.00 | 0.00 | 53 | 1011.8 |
| 20260906203820 | 91 | 164 | 0.0 | 0.0 | 0.00 | 0.00 | 0.00 | 52 | 1014.8 |
| 20260906203546 | 91 | 157 | 0.0 | 0.0 | 0.00 | 0.00 | 0.00 | 52 | 1011.8 |
| 20260906203338 | 92 | 141 | 0.0 | 0.0 | 0.00 | 0.00 | 0.00 | 52 | 1014.8 |
| 20260906203013 | 91 | 155 | 0.0 | 0.0 | 0.00 | 0.00 | 0.00 | 52 | 1011.8 |
| 20260906202815 | 92 | 165 | 0.0 | 0.0 | 0.00 | 0.00 | 0.00 | 53 | 1014.8 |
| 20260906202602 | 91 | 116 | 0.0 | 0.0 | 0.00 | 0.00 | 0.00 | 53 | 1011.9 |
| 20260906202333 | 91 | 110 | 0.0 | 0.0 | 0.00 | 0.00 | 0.00 | 53 | 1014.9 |
| 20260906202053 | 91 | 98 | 0.0 | 0.0 | 0.00 | 0.00 | 0.00 | 54 | 1012.0 |
| 20260906201831 | 91 | 97 | 0.0 | 0.0 | 0.00 | 0.00 | 0.00 | 55 | 1015.0 |
| 20260906201543 | 90 | 222 | 0.0 | 0.0 | 0.00 | 0.00 | 0.00 | 54 | 1012.1 |
| 20260906201329 | 91 | 170 | 0.0 | 0.0 | 0.00 | 0.00 | 0.00 | 54 | 1015.1 |
| 20260906201036 | 90 | 168 | 0.0 | 0.0 | 0.00 | 0.00 | 0.00 | 54 | 1012.2 |
| 20260906200826 | 91 | 183 | 0.0 | 0.0 | 0.00 | 0.00 | 0.00 | 54 | 1015.1 |
| 20260906200523 | 90 | 147 | 0.0 | 0.0 | 0.00 | 0.00 | 0.00 | 55 | 1012.3 |
| 20260906200324 | 90 | 229 | 0.0 | 0.0 | 0.00 | 0.00 | 0.00 | 54 | 1015.1 |
| 20260906200005 | 90 | 172 | 0.0 | 0.0 | 0.00 | 0.00 | 0.00 | 55 | 1012.3 |
| 20260906195822 | 90 | 165 | 0.0 | 0.0 | 0.00 | 0.00 | 0.00 | 55 | 1015.3 |
| 20260906195558 | 90 | 171 | 0.0 | 0.0 | 0.00 | 0.00 | 0.00 | 55 | 1012.3 |
| 20260906195320 | 90 | 142 | 0.0 | 0.0 | 0.00 | 0.00 | 0.00 | 55 | 1015.3 |
| 20260906195047 | 90 | 144 | 0.0 | 0.0 | 0.00 | 0.00 | 0.00 | 54 | 1012.4 |
| 20260906194818 | 90 | 188 | 0.0 | 0.0 | 0.00 | 0.00 | 0.00 | 55 | 1015.5 |
| 20260906194537 | 90 | 227 | 0.0 | 0.0 | 0.00 | 0.00 | 0.00 | 55 | 1012.5 |
| 20260906194316 | 90 | 206 | 0.0 | 0.0 | 0.00 | 0.00 | 0.00 | 55 | 1015.5 |
| 20260906194027 | 90 | 145 | 0.0 | 0.0 | 0.00 | 0.00 | 0.00 | 55 | 1012.5 |
| 20260906193814 | 90 | 177 | 0.0 | 0.0 | 0.00 | 0.00 | 0.00 | 55 | 1015.4 |
| 20260906193511 | 89 | 131 | 0.0 | 0.0 | 0.00 | 0.00 | 0.00 | 55 | 1012.5 |
| 20260906193328 | 90 | 136 | 0.0 | 0.0 | 0.00 | 0.00 | 0.00 | 57 | 1015.6 |
| 20260906193104 | 89 | 154 | 0.0 | 0.0 | 0.00 | 0.00 | 0.00 | 57 | 1012.5 |
| 20260906192826 | 89 | 121 | 0.0 | 0.0 | 0.00 | 0.00 | 0.00 | 56 | 1015.7 |
| 20260906192551 | 89 | 251 | 0.0 | 0.0 | 0.00 | 0.00 | 0.00 | 56 | 1012.7 |
| 20260906192324 | 89 | 217 | 0.0 | 0.0 | 0.00 | 0.00 | 0.00 | 56 | 1015.7 |
| 20260906192041 | 88 | 252 | 0.0 | 0.0 | 0.00 | 0.00 | 0.00 | 58 | 1012.7 |
| 20260906191822 | 88 | 170 | 0.0 | 0.0 | 0.00 | 0.00 | 0.00 | 57 | 1015.8 |
| 20260906191532 | 88 | 127 | 0.0 | 0.0 | 0.00 | 0.00 | 0.00 | 57 | 1012.9 |
| 20260906191320 | 88 | 181 | 0.0 | 0.0 | 0.00 | 0.00 | 0.00 | 58 | 1016.0 |
| 20260906191021 | 87 | 207 | 0.0 | 0.0 | 0.00 | 0.00 | 0.00 | 58 | 1012.9 |
| 20260906190837 | 88 | 168 | 0.0 | 0.0 | 0.00 | 0.00 | 0.00 | 58 | 1015.9 |
| 20260906190545 | 87 | 163 | 0.0 | 0.0 | 0.00 | 0.00 | 0.00 | 58 | 1012.9 |
| 20260906190314 | 87 | 196 | 0.0 | 0.0 | 0.00 | 0.00 | 0.00 | 61 | 1016.0 |
| 20260906190036 | 86 | 168 | 0.0 | 0.0 | 0.00 | 0.00 | 0.00 | 62 | 1013.1 |
| 20260906185832 | 87 | 248 | 0.0 | 0.0 | 0.00 | 0.00 | 0.00 | 62 | 1016.2 |
| 20260906185533 | 86 | 88 | 0.0 | 0.0 | 0.00 | 0.00 | 0.00 | 60 | 1013.2 |
| 20260906185350 | 87 | 166 | 0.0 | 0.0 | 0.00 | 0.00 | 0.00 | 62 | 1016.2 |
| 20260906185057 | 86 | 122 | 0.0 | 0.0 | 0.00 | 0.00 | 0.00 | 63 | 1013.2 |
| 20260906184825 | 87 | 87 | 0.0 | 0.0 | 0.00 | 0.00 | 0.00 | 64 | 1016.3 |
| 20260906184549 | 86 | 120 | 0.0 | 0.0 | 0.00 | 0.00 | 0.00 | 65 | 1013.3 |
| 20260906184321 | 86 | 179 | 0.0 | 0.0 | 0.00 | 0.00 | 0.00 | 66 | 1016.4 |
| 20260906184040 | 85 | 195 | 0.0 | 0.0 | 0.00 | 0.00 | 0.00 | 67 | 1013.4 |
| 20260906183819 | 85 | 187 | 0.0 | 0.0 | 0.00 | 0.00 | 0.00 | 67 | 1016.4 |
| 20260906183535 | 85 | 215 | 0.0 | 0.0 | 0.00 | 0.00 | 0.00 | 68 | 1013.4 |
| 20260906183317 | 85 | 145 | 0.0 | 0.0 | 0.00 | 0.00 | 0.00 | 68 | 1016.4 |
| 20260906183020 | 84 | 140 | 0.0 | 0.0 | 0.00 | 0.00 | 0.00 | 68 | 1013.4 |
| 20260906182854 | 85 | 198 | 0.0 | 0.0 | 0.00 | 0.00 | 0.00 | 68 | 1016.6 |
| 20260906182553 | 84 | 147 | 0.0 | 0.0 | 0.00 | 0.00 | 0.00 | 71 | 1013.5 |
| 20260906182329 | 84 | 138 | 0.0 | 0.0 | 0.00 | 0.00 | 0.00 | 72 | 1016.6 |
| 20260906182045 | 83 | 226 | 0.0 | 0.0 | 0.00 | 0.00 | 0.00 | 72 | 1013.6 |
| 20260906181824 | 83 | 182 | 0.0 | 0.0 | 0.00 | 0.00 | 0.00 | 72 | 1016.7 |
| 20260906181547 | 82 | 197 | 0.0 | 0.0 | 0.00 | 0.00 | 0.00 | 73 | 1013.6 |
| 20260906181322 | 82 | 264 | 0.0 | 2.6 | 0.00 | 0.00 | 0.00 | 73 | 1016.7 |
| 20260906181034 | 81 | 220 | 0.0 | 4.3 | 0.00 | 0.00 | 0.00 | 75 | 1013.7 |
| 20260906180821 | 82 | 220 | 0.0 | 4.3 | 0.00 | 0.00 | 0.00 | 76 | 1016.9 |
| 20260906180524 | 81 | 220 | 2.6 | 4.3 | 0.00 | 0.00 | 0.00 | 76 | 1014.0 |
| 20260906180340 | 81 | 203 | 1.7 | 4.3 | 0.00 | 0.00 | 0.00 | 77 | 1017.0 |
| 20260906180013 | 80 | 189 | 2.6 | 4.3 | 0.00 | 0.00 | 0.00 | 77 | 1014.1 |
| 20260906175831 | 80 | 228 | 2.6 | 4.3 | 0.00 | 0.00 | 0.00 | 77 | 1017.1 |
| 20260906175559 | 79 | 229 | 2.6 | 4.3 | 0.00 | 0.00 | 0.00 | 78 | 1014.0 |
| 20260906175350 | 80 | 237 | 2.6 | 4.3 | 0.00 | 0.00 | 0.00 | 78 | 1017.0 |
| 20260906175030 | 79 | 220 | 2.6 | 4.3 | 0.00 | 0.00 | 0.00 | 78 | 1014.1 |
| 20260906174826 | 79 | 230 | 3.5 | 3.5 | 0.00 | 0.00 | 0.00 | 78 | 1017.1 |
| 20260906174555 | 79 | 230 | 0.9 | 3.5 | 0.00 | 0.00 | 0.00 | 79 | 1014.3 |
| 20260906174325 | 79 | 230 | 1.7 | 3.5 | 0.00 | 0.00 | 0.00 | 78 | 1017.3 |
| 20260906174047 | 78 | 231 | 1.7 | 3.5 | 0.00 | 0.00 | 0.00 | 79 | 1014.4 |
| 20260906173824 | 79 | 230 | 2.6 | 3.5 | 0.00 | 0.00 | 0.00 | 79 | 1017.5 |
| 20260906173538 | 78 | 226 | 1.7 | 3.5 | 0.00 | 0.00 | 0.00 | 79 | 1014.4 |
| 20260906173323 | 79 | 229 | 0.9 | 4.3 | 0.00 | 0.00 | 0.00 | 79 | 1017.6 |
| 20260906173033 | 78 | 229 | 1.7 | 4.3 | 0.00 | 0.00 | 0.00 | 78 | 1014.6 |
| 20260906172842 | 79 | 230 | 2.6 | 4.3 | 0.00 | 0.00 | 0.00 | 80 | 1017.7 |
| 20260906172559 | 78 | 230 | 2.6 | 4.3 | 0.00 | 0.00 | 0.00 | 81 | 1014.7 |
| 20260906172320 | 79 | 233 | 3.5 | 4.3 | 0.00 | 0.00 | 0.00 | 81 | 1017.7 |
| 20260906172049 | 78 | 229 | 2.6 | 4.3 | 0.00 | 0.00 | 0.00 | 82 | 1014.8 |
| 20260906171819 | 79 | 193 | 2.6 | 4.3 | 0.00 | 0.00 | 0.00 | 81 | 1017.8 |
| 20260906171549 | 78 | 193 | 2.6 | 4.3 | 0.00 | 0.00 | 0.00 | 81 | 1014.9 |
| 20260906171318 | 79 | 192 | 2.6 | 4.3 | 0.00 | 0.00 | 0.00 | 81 | 1018.0 |
| 20260906171033 | 78 | 193 | 2.6 | 7.0 | 0.00 | 0.00 | 0.00 | 81 | 1015.0 |
| 20260906170817 | 79 | 167 | 2.6 | 7.0 | 0.00 | 0.00 | 0.00 | 81 | 1018.1 |
| 20260906170527 | 79 | 154 | 2.6 | 7.0 | 0.00 | 0.00 | 0.00 | 81 | 1015.1 |
| 20260906170421 | 79 | 154 | 3.5 | 7.0 | 0.00 | 0.00 | 0.00 | 81 | 1018.1 |
| 20260906170029 | 79 | 137 | 3.5 | 7.0 | 0.00 | 0.00 | 0.00 | 80 | 1015.2 |
| 20260906165830 | 80 | 147 | 4.3 | 7.0 | 0.00 | 0.00 | 0.00 | 79 | 1018.1 |
| 20260906165515 | 80 | 150 | 3.5 | 6.1 | 0.00 | 0.00 | 0.00 | 79 | 1015.2 |
| 20260906165345 | 80 | 162 | 4.3 | 6.1 | 0.00 | 0.00 | 0.00 | 79 | 1018.2 |
| 20260906165048 | 80 | 145 | 1.7 | 3.5 | 0.00 | 0.00 | 0.00 | 80 | 1015.2 |
| 20260906164844 | 80 | 145 | 1.7 | 4.3 | 0.00 | 0.00 | 0.00 | 80 | 1018.1 |
| 20260906164511 | 80 | 156 | 1.7 | 5.2 | 0.00 | 0.00 | 0.00 | 81 | 1015.1 |
| 20260906164322 | 80 | 176 | 0.9 | 5.2 | 0.00 | 0.00 | 0.00 | 82 | 1018.1 |
| 20260906164003 | 79 | 95 | 2.6 | 5.2 | 0.00 | 0.00 | 0.00 | 82 | 1015.1 |
| 20260906163820 | 80 | 99 | 2.6 | 5.2 | 0.00 | 0.00 | 0.00 | 82 | 1018.2 |
| 20260906163557 | 79 | 85 | 0.9 | 4.3 | 0.00 | 0.00 | 0.00 | 83 | 1015.1 |
| 20260906163319 | 80 | 64 | 1.7 | 4.3 | 0.00 | 0.00 | 0.00 | 83 | 1018.1 |
| 20260906163101 | 79 | 104 | 0.9 | 5.2 | 0.00 | 0.00 | 0.00 | 83 | 1015.2 |
| 20260906162837 | 80 | 104 | 2.6 | 5.2 | 0.00 | 0.00 | 0.00 | 83 | 1018.2 |
| 20260906162517 | 79 | 120 | 0.0 | 3.5 | 0.00 | 0.00 | 0.00 | 84 | 1015.2 |
| 20260906162353 | 79 | 120 | 2.6 | 3.5 | 0.00 | 0.00 | 0.00 | 83 | 1018.2 |
| 20260906162052 | 79 | 120 | 0.9 | 2.6 | 0.00 | 0.00 | 0.00 | 84 | 1015.1 |
| 20260906161851 | 79 | 120 | 1.7 | 2.6 | 0.00 | 0.00 | 0.00 | 84 | 1018.1 |
| 20260906161518 | 79 | 120 | 0.9 | 2.6 | 0.00 | 0.00 | 0.00 | 84 | 1015.1 |
| 20260906161327 | 79 | 120 | 0.9 | 2.6 | 0.00 | 0.00 | 0.00 | 84 | 1018.1 |
| 20260906161003 | 78 | 120 | 0.0 | 2.6 | 0.00 | 0.00 | 0.00 | 84 | 1015.1 |
| 20260906160826 | 79 | 120 | 1.7 | 2.6 | 0.00 | 0.00 | 0.00 | 84 | 1018.1 |
| 20260906160557 | 78 | 68 | 0.9 | 2.6 | 0.00 | 0.00 | 0.00 | 83 | 1015.1 |
| 20260906160324 | 79 | 68 | 1.7 | 2.6 | 0.00 | 0.00 | 0.00 | 83 | 1018.1 |
| 20260906160054 | 78 | 68 | 0.0 | 2.6 | 0.00 | 0.00 | 0.00 | 83 | 1015.1 |
| 20260906155823 | 79 | 68 | 1.7 | 3.5 | 0.00 | 0.00 | 0.00 | 83 | 1018.1 |
| 20260906155543 | 78 | 68 | 0.9 | 3.5 | 0.00 | 0.00 | 0.00 | 82 | 1014.9 |
| 20260906155321 | 79 | 68 | 1.7 | 3.5 | 0.00 | 0.00 | 0.00 | 82 | 1018.0 |
| 20260906155033 | 78 | 75 | 1.7 | 3.5 | 0.00 | 0.00 | 0.00 | 82 | 1014.8 |
| 20260906154839 | 79 | 75 | 1.7 | 3.5 | 0.00 | 0.00 | 0.00 | 82 | 1017.9 |
| 20260906154522 | 78 | 75 | 0.9 | 3.5 | 0.00 | 0.00 | 0.00 | 82 | 1014.9 |
| 20260906154330 | 79 | 75 | 1.7 | 3.5 | 0.00 | 0.00 | 0.00 | 81 | 1017.8 |
| 20260906154011 | 78 | 105 | 0.9 | 3.5 | 0.00 | 0.00 | 0.00 | 82 | 1014.8 |
| 20260906153829 | 79 | 105 | 1.7 | 3.5 | 0.00 | 0.00 | 0.00 | 82 | 1017.7 |
| 20260906153506 | 78 | 95 | 0.9 | 3.5 | 0.00 | 0.00 | 0.00 | 84 | 1014.7 |
| 20260906153346 | 79 | 91 | 1.7 | 3.5 | 0.00 | 0.00 | 0.00 | 84 | 1017.6 |
| 20260906153043 | 78 | 99 | 0.9 | 3.5 | 0.00 | 0.00 | 0.00 | 84 | 1014.6 |
| 20260906152823 | 79 | 110 | 2.6 | 3.5 | 0.00 | 0.00 | 0.00 | 84 | 1017.6 |
| 20260906152532 | 78 | 83 | 0.9 | 3.5 | 0.00 | 0.00 | 0.00 | 84 | 1014.5 |
| 20260906152341 | 78 | 166 | 1.7 | 4.3 | 0.00 | 0.00 | 0.00 | 83 | 1017.6 |
| 20260906152052 | 78 | 166 | 0.9 | 4.3 | 0.00 | 0.00 | 0.00 | 83 | 1014.5 |
| 20260906151818 | 78 | 166 | 3.5 | 4.3 | 0.00 | 0.00 | 0.00 | 82 | 1017.5 |
| 20260906151546 | 77 | 166 | 2.6 | 4.3 | 0.00 | 0.00 | 0.00 | 82 | 1014.4 |
| 20260906151335 | 78 | 166 | 3.5 | 4.3 | 0.00 | 0.00 | 0.00 | 82 | 1017.4 |
| 20260906151009 | 77 | 166 | 2.6 | 4.3 | 0.00 | 0.00 | 0.00 | 82 | 1014.2 |
| 20260906150832 | 78 | 166 | 2.6 | 3.5 | 0.00 | 0.00 | 0.00 | 82 | 1017.2 |
| 20260906150503 | 77 | 166 | 1.7 | 2.6 | 0.00 | 0.00 | 0.00 | 82 | 1014.3 |
| 20260906150329 | 78 | 166 | 1.7 | 3.5 | 0.00 | 0.00 | 0.00 | 82 | 1017.2 |
| 20260906150034 | 77 | 166 | 1.7 | 3.5 | 0.00 | 0.00 | 0.00 | 83 | 1014.2 |
| 20260906145828 | 77 | 166 | 0.9 | 2.6 | 0.00 | 0.00 | 0.00 | 83 | 1017.1 |
| 20260906145524 | 77 | 166 | 0.9 | 2.6 | 0.00 | 0.00 | 0.00 | 83 | 1014.1 |
| 20260906145325 | 77 | 166 | 1.7 | 2.6 | 0.00 | 0.00 | 0.00 | 83 | 1017.1 |
| 20260906145007 | 77 | 166 | 1.7 | 4.3 | 0.00 | 0.00 | 0.00 | 83 | 1014.2 |
| 20260906144823 | 77 | 165 | 1.7 | 4.3 | 0.00 | 0.00 | 0.00 | 83 | 1017.2 |
| 20260906144601 | 77 | 166 | 1.7 | 5.2 | 0.00 | 0.00 | 0.00 | 83 | 1014.2 |
| 20260906144321 | 77 | 166 | 3.5 | 5.2 | 0.00 | 0.00 | 0.00 | 83 | 1017.3 |
| 20260906144048 | 76 | 165 | 3.5 | 5.2 | 0.00 | 0.00 | 0.00 | 83 | 1014.4 |
| 20260906143819 | 77 | 160 | 3.5 | 6.1 | 0.00 | 0.00 | 0.00 | 83 | 1017.3 |
| 20260906143539 | 76 | 158 | 2.6 | 6.1 | 0.00 | 0.00 | 0.00 | 83 | 1014.3 |
| 20260906143337 | 77 | 147 | 4.3 | 6.1 | 0.00 | 0.00 | 0.00 | 83 | 1017.3 |
| 20260906143003 | 76 | 154 | 2.6 | 5.2 | 0.00 | 0.00 | 0.00 | 84 | 1014.2 |
| 20260906142814 | 77 | 154 | 3.5 | 5.2 | 0.00 | 0.00 | 0.00 | 84 | 1017.1 |
| 20260906142554 | 76 | 154 | 1.7 | 4.3 | 0.00 | 0.00 | 0.00 | 84 | 1014.1 |
| 20260906142348 | 77 | 154 | 1.7 | 2.6 | 0.00 | 0.00 | 0.00 | 84 | 1016.9 |
| 20260906142028 | 76 | 154 | 0.9 | 4.3 | 0.00 | 0.00 | 0.00 | 84 | 1014.0 |
| 20260906141826 | 76 | 154 | 0.9 | 5.2 | 0.00 | 0.00 | 0.00 | 84 | 1016.9 |
| 20260906141512 | 76 | 154 | 1.7 | 5.2 | 0.00 | 0.00 | 0.00 | 84 | 1013.9 |
| 20260906141323 | 76 | 154 | 2.6 | 5.2 | 0.00 | 0.00 | 0.00 | 84 | 1016.8 |
| 20260906141100 | 76 | 154 | 2.6 | 4.3 | 0.00 | 0.00 | 0.00 | 85 | 1013.9 |
| 20260906140821 | 76 | 131 | 2.6 | 2.6 | 0.00 | 0.00 | 0.00 | 85 | 1016.8 |
| 20260906140553 | 75 | 131 | 0.0 | 0.0 | 0.00 | 0.00 | 0.00 | 85 | 1013.8 |
| 20260906140319 | 76 | 130 | 0.0 | 0.0 | 0.00 | 0.00 | 0.00 | 85 | 1016.7 |
| 20260906140041 | 75 | 131 | 0.0 | 0.0 | 0.00 | 0.00 | 0.00 | 85 | 1013.6 |
| 20260906135817 | 76 | 131 | 0.0 | 0.0 | 0.00 | 0.00 | 0.00 | 85 | 1016.6 |
| 20260906135529 | 75 | 130 | 0.0 | 0.0 | 0.00 | 0.00 | 0.00 | 84 | 1013.5 |
| 20260906135315 | 75 | 130 | 0.0 | 0.0 | 0.00 | 0.00 | 0.00 | 84 | 1016.5 |
| 20260906135018 | 75 | 131 | 0.0 | 0.0 | 0.00 | 0.00 | 0.00 | 85 | 1013.4 |
| 20260906134833 | 75 | 130 | 0.0 | 0.0 | 0.00 | 0.00 | 0.00 | 84 | 1016.4 |
| 20260906134604 | 75 | 130 | 0.0 | 0.0 | 0.00 | 0.00 | 0.00 | 84 | 1013.4 |
| 20260906134351 | 75 | 130 | 0.0 | 0.0 | 0.00 | 0.00 | 0.00 | 84 | 1016.4 |
| 20260906134035 | 74 | 131 | 0.0 | 0.0 | 0.00 | 0.00 | 0.00 | 84 | 1013.3 |
| 20260906133828 | 75 | 130 | 0.0 | 0.0 | 0.00 | 0.00 | 0.00 | 85 | 1016.3 |
| 20260906133519 | 74 | 130 | 0.0 | 0.0 | 0.00 | 0.00 | 0.00 | 85 | 1013.3 |
| 20260906133325 | 75 | 131 | 0.0 | 0.0 | 0.00 | 0.00 | 0.00 | 85 | 1016.3 |
| 20260906133005 | 74 | 131 | 0.0 | 2.6 | 0.00 | 0.00 | 0.00 | 85 | 1013.4 |
| 20260906132823 | 75 | 131 | 0.0 | 2.6 | 0.00 | 0.00 | 0.00 | 85 | 1016.4 |
| 20260906132556 | 74 | 130 | 0.0 | 2.6 | 0.00 | 0.00 | 0.00 | 85 | 1013.4 |
| 20260906132321 | 74 | 130 | 0.9 | 2.6 | 0.00 | 0.00 | 0.00 | 85 | 1016.4 |
| 20260906132047 | 74 | 130 | 0.0 | 0.0 | 0.00 | 0.00 | 0.00 | 85 | 1013.4 |
| 20260906131839 | 74 | 131 | 0.0 | 0.0 | 0.00 | 0.00 | 0.00 | 85 | 1016.5 |
| 20260906131533 | 74 | 131 | 0.0 | 0.0 | 0.00 | 0.00 | 0.00 | 85 | 1013.3 |
| 20260906131330 | 74 | 130 | 0.0 | 0.0 | 0.00 | 0.00 | 0.00 | 84 | 1016.3 |
| 20260906131016 | 73 | 130 | 0.0 | 0.0 | 0.00 | 0.00 | 0.00 | 84 | 1013.2 |
| 20260906130829 | 74 | 131 | 0.0 | 0.0 | 0.00 | 0.00 | 0.00 | 84 | 1016.1 |
| 20260906130509 | 73 | 130 | 0.0 | 0.0 | 0.00 | 0.00 | 0.00 | 84 | 1013.2 |
| 20260906130325 | 74 | 130 | 0.0 | 0.0 | 0.00 | 0.00 | 0.00 | 84 | 1016.1 |
| 20260906130114 | 73 | 131 | 0.0 | 0.0 | 0.00 | 0.00 | 0.00 | 84 | 1013.1 |
| 20260906125823 | 74 | 130 | 0.0 | 0.0 | 0.00 | 0.00 | 0.00 | 83 | 1016.2 |
| 20260906125551 | 73 | 131 | 0.0 | 0.0 | 0.00 | 0.00 | 0.00 | 83 | 1013.1 |
| 20260906125321 | 74 | 131 | 0.0 | 0.0 | 0.00 | 0.00 | 0.00 | 83 | 1016.1 |
| 20260906125041 | 73 | 131 | 0.0 | 0.0 | 0.00 | 0.00 | 0.00 | 83 | 1013.2 |
| 20260906124819 | 74 | 130 | 0.0 | 0.0 | 0.00 | 0.00 | 0.00 | 83 | 1016.1 |
| 20260906124538 | 73 | 130 | 0.0 | 0.0 | 0.00 | 0.00 | 0.00 | 83 | 1013.1 |
| 20260906124336 | 74 | 130 | 0.0 | 0.0 | 0.00 | 0.00 | 0.00 | 83 | 1016.0 |
| 20260906124018 | 73 | 131 | 0.0 | 0.0 | 0.00 | 0.00 | 0.00 | 83 | 1012.9 |
| 20260906123832 | 74 | 130 | 0.0 | 0.0 | 0.00 | 0.00 | 0.00 | 83 | 1015.9 |
| 20260906123601 | 73 | 131 | 0.0 | 0.0 | 0.00 | 0.00 | 0.00 | 83 | 1012.8 |
| 20260906123330 | 74 | 131 | 0.0 | 0.0 | 0.00 | 0.00 | 0.00 | 83 | 1015.9 |
| 20260906123055 | 73 | 130 | 0.0 | 0.0 | 0.00 | 0.00 | 0.00 | 82 | 1012.7 |
| 20260906122829 | 74 | 130 | 0.0 | 0.0 | 0.00 | 0.00 | 0.00 | 82 | 1015.7 |
| 20260906122544 | 74 | 131 | 0.0 | 0.0 | 0.00 | 0.00 | 0.00 | 82 | 1012.7 |
| 20260906122325 | 74 | 130 | 0.0 | 0.0 | 0.00 | 0.00 | 0.00 | 82 | 1015.8 |
| 20260906122036 | 74 | 130 | 0.0 | 0.0 | 0.00 | 0.00 | 0.00 | 82 | 1012.7 |
| 20260906121822 | 74 | 130 | 0.0 | 0.0 | 0.00 | 0.00 | 0.00 | 82 | 1015.8 |
| 20260906121531 | 74 | 130 | 0.0 | 0.0 | 0.00 | 0.00 | 0.00 | 82 | 1012.7 |
| 20260906121340 | 74 | 131 | 0.0 | 0.0 | 0.00 | 0.00 | 0.00 | 82 | 1015.7 |
| 20260906121021 | 74 | 131 | 0.0 | 0.0 | 0.00 | 0.00 | 0.00 | 81 | 1012.7 |
| 20260906120830 | 74 | 131 | 0.0 | 0.0 | 0.00 | 0.00 | 0.00 | 81 | 1015.6 |
| 20260906120508 | 74 | 130 | 0.0 | 0.0 | 0.00 | 0.00 | 0.00 | 81 | 1012.6 |
| 20260906120325 | 75 | 131 | 0.0 | 0.0 | 0.00 | 0.00 | 0.00 | 81 | 1015.5 |
| 20260906120002 | 74 | 130 | 0.0 | 0.0 | 0.00 | 0.00 | 0.00 | 81 | 1012.3 |
| 20260906115822 | 75 | 130 | 0.0 | 0.0 | 0.00 | 0.00 | 0.00 | 81 | 1015.3 |
| 20260906115556 | 74 | 131 | 0.0 | 0.0 | 0.00 | 0.00 | 0.00 | 81 | 1012.2 |
| 20260906115318 | 75 | 130 | 0.0 | 0.0 | 0.00 | 0.00 | 0.00 | 81 | 1015.3 |
| 20260906115049 | 74 | 131 | 0.0 | 0.0 | 0.00 | 0.00 | 0.00 | 82 | 1012.2 |
| 20260906114815 | 75 | 130 | 0.0 | 0.0 | 0.00 | 0.00 | 0.00 | 81 | 1015.3 |
| 20260906114546 | 74 | 130 | 0.0 | 0.0 | 0.00 | 0.00 | 0.00 | 81 | 1012.3 |
| 20260906114331 | 75 | 130 | 0.0 | 0.0 | 0.00 | 0.00 | 0.00 | 81 | 1015.1 |
| 20260906114030 | 75 | 130 | 0.0 | 0.0 | 0.00 | 0.00 | 0.00 | 81 | 1012.0 |
| 20260906113829 | 75 | 130 | 0.0 | 0.0 | 0.00 | 0.00 | 0.00 | 81 | 1014.9 |
| 20260906113512 | 75 | 130 | 0.0 | 0.0 | 0.00 | 0.00 | 0.00 | 80 | 1012.0 |
| 20260906113346 | 75 | 131 | 0.0 | 0.0 | 0.00 | 0.00 | 0.00 | 80 | 1015.0 |
| 20260906113044 | 75 | 130 | 0.0 | 0.0 | 0.00 | 0.00 | 0.00 | 80 | 1012.0 |
| 20260906112820 | 75 | 130 | 0.0 | 0.0 | 0.00 | 0.00 | 0.00 | 80 | 1015.0 |
| 20260906112536 | 75 | 130 | 0.0 | 0.0 | 0.00 | 0.00 | 0.00 | 80 | 1012.1 |
| 20260906112317 | 75 | 130 | 0.0 | 0.0 | 0.00 | 0.00 | 0.00 | 80 | 1015.0 |
| 20260906112028 | 75 | 131 | 0.0 | 0.0 | 0.00 | 0.00 | 0.00 | 80 | 1012.2 |
| 20260906111816 | 76 | 130 | 0.0 | 0.0 | 0.00 | 0.00 | 0.00 | 80 | 1015.0 |
| 20260906111523 | 75 | 130 | 0.0 | 0.0 | 0.00 | 0.00 | 0.00 | 80 | 1012.0 |
| 20260906111334 | 76 | 131 | 0.0 | 0.0 | 0.00 | 0.00 | 0.00 | 80 | 1015.0 |
| 20260906111048 | 75 | 131 | 0.0 | 0.0 | 0.00 | 0.00 | 0.00 | 80 | 1012.0 |
| 20260906110832 | 76 | 130 | 0.0 | 0.0 | 0.00 | 0.00 | 0.00 | 80 | 1014.9 |
| 20260906110542 | 75 | 130 | 0.0 | 0.0 | 0.00 | 0.00 | 0.00 | 80 | 1011.9 |
| 20260906110330 | 76 | 131 | 0.0 | 0.0 | 0.00 | 0.00 | 0.00 | 79 | 1014.9 |
| 20260906110034 | 75 | 131 | 0.0 | 0.0 | 0.00 | 0.00 | 0.00 | 79 | 1011.9 |
| 20260906105847 | 76 | 130 | 0.0 | 1.7 | 0.00 | 0.00 | 0.00 | 79 | 1014.9 |
| 20260906105600 | 76 | 130 | 0.0 | 1.7 | 0.00 | 0.00 | 0.00 | 79 | 1011.9 |
| 20260906105323 | 76 | 131 | 0.0 | 1.7 | 0.00 | 0.00 | 0.00 | 79 | 1014.8 |
| 20260906105052 | 76 | 130 | 0.0 | 1.7 | 0.00 | 0.00 | 0.00 | 79 | 1011.8 |
| 20260906104821 | 77 | 131 | 0.0 | 0.9 | 0.00 | 0.00 | 0.00 | 79 | 1014.7 |
| 20260906104544 | 76 | 130 | 0.0 | 0.9 | 0.00 | 0.00 | 0.00 | 79 | 1011.7 |
| 20260906104336 | 77 | 131 | 0.0 | 0.9 | 0.00 | 0.00 | 0.00 | 79 | 1014.7 |
| 20260906104017 | 76 | 130 | 0.0 | 1.7 | 0.00 | 0.00 | 0.00 | 78 | 1011.7 |
| 20260906103815 | 77 | 130 | 0.0 | 1.7 | 0.00 | 0.00 | 0.00 | 78 | 1014.7 |
| 20260906103600 | 76 | 131 | 0.0 | 1.7 | 0.00 | 0.00 | 0.00 | 79 | 1011.8 |
| 20260906103313 | 77 | 130 | 0.9 | 1.7 | 0.00 | 0.00 | 0.00 | 79 | 1014.8 |
| 20260906103057 | 76 | 130 | 0.0 | 1.7 | 0.00 | 0.00 | 0.00 | 78 | 1011.9 |
| 20260906102851 | 77 | 130 | 0.9 | 1.7 | 0.00 | 0.00 | 0.00 | 78 | 1014.9 |
| 20260906102519 | 77 | 130 | 0.0 | 1.7 | 0.00 | 0.00 | 0.00 | 77 | 1011.9 |
| 20260906102326 | 77 | 130 | 0.0 | 0.0 | 0.00 | 0.00 | 0.00 | 77 | 1014.8 |
| 20260906102048 | 77 | 130 | 0.0 | 0.0 | 0.00 | 0.00 | 0.00 | 77 | 1011.9 |
| 20260906101823 | 78 | 130 | 0.0 | 0.0 | 0.00 | 0.00 | 0.00 | 77 | 1014.9 |
| 20260906101545 | 77 | 130 | 0.0 | 0.0 | 0.00 | 0.00 | 0.00 | 76 | 1011.8 |
| 20260906101321 | 78 | 130 | 0.0 | 0.0 | 0.00 | 0.00 | 0.00 | 76 | 1014.8 |
| 20260906101004 | 77 | 131 | 0.0 | 0.0 | 0.00 | 0.00 | 0.00 | 76 | 1011.8 |
| 20260906100819 | 78 | 130 | 0.0 | 0.9 | 0.00 | 0.00 | 0.00 | 76 | 1014.8 |
| 20260906100558 | 78 | 131 | 0.0 | 1.7 | 0.00 | 0.00 | 0.00 | 76 | 1011.8 |
| 20260906100318 | 78 | 130 | 0.0 | 2.6 | 0.00 | 0.00 | 0.00 | 76 | 1014.7 |
| 20260906100056 | 78 | 130 | 0.0 | 2.6 | 0.00 | 0.00 | 0.00 | 76 | 1011.8 |
| 20260906095836 | 78 | 130 | 0.9 | 2.6 | 0.00 | 0.00 | 0.00 | 77 | 1014.8 |
| 20260906095525 | 78 | 130 | 0.9 | 1.7 | 0.00 | 0.00 | 0.00 | 77 | 1011.8 |
| 20260906095353 | 78 | 131 | 0.9 | 1.7 | 0.00 | 0.00 | 0.00 | 77 | 1014.8 |
| 20260906095050 | 78 | 131 | 0.0 | 1.7 | 0.00 | 0.00 | 0.00 | 76 | 1011.8 |
| 20260906094851 | 78 | 130 | 0.0 | 1.7 | 0.00 | 0.00 | 0.00 | 76 | 1014.8 |
| 20260906094514 | 78 | 130 | 0.0 | 0.0 | 0.00 | 0.00 | 0.00 | 76 | 1011.8 |
| 20260906094329 | 78 | 131 | 0.0 | 0.0 | 0.00 | 0.00 | 0.00 | 76 | 1014.8 |
| 20260906094013 | 78 | 131 | 0.0 | 0.0 | 0.00 | 0.00 | 0.00 | 76 | 1011.8 |
| 20260906093846 | 78 | 131 | 0.0 | 0.0 | 0.00 | 0.00 | 0.00 | 76 | 1014.7 |
| 20260906093547 | 78 | 131 | 0.0 | 0.0 | 0.00 | 0.00 | 0.00 | 76 | 1011.7 |
| 20260906093343 | 78 | 131 | 0.0 | 0.9 | 0.00 | 0.00 | 0.00 | 76 | 1014.7 |
| 20260906093024 | 78 | 130 | 0.0 | 1.7 | 0.00 | 0.00 | 0.00 | 76 | 1011.7 |
| 20260906092820 | 78 | 131 | 0.0 | 1.7 | 0.00 | 0.00 | 0.00 | 77 | 1014.7 |
| 20260906092504 | 78 | 130 | 0.0 | 1.7 | 0.00 | 0.00 | 0.00 | 77 | 1011.7 |
| 20260906092318 | 78 | 131 | 0.9 | 1.7 | 0.00 | 0.00 | 0.00 | 77 | 1014.7 |
| 20260906092056 | 78 | 130 | 0.0 | 0.9 | 0.00 | 0.00 | 0.00 | 77 | 1011.7 |
| 20260906091816 | 78 | 131 | 0.0 | 0.9 | 0.00 | 0.00 | 0.00 | 76 | 1014.7 |
| 20260906091548 | 78 | 131 | 0.0 | 1.7 | 0.00 | 0.00 | 0.00 | 76 | 1011.7 |
| 20260906091314 | 78 | 130 | 0.0 | 1.7 | 0.00 | 0.00 | 0.00 | 76 | 1014.7 |
| 20260906091038 | 78 | 130 | 0.0 | 1.7 | 0.00 | 0.00 | 0.00 | 76 | 1011.7 |
| 20260906090852 | 79 | 130 | 0.9 | 1.7 | 0.00 | 0.00 | 0.00 | 76 | 1014.7 |
| 20260906090503 | 78 | 130 | 0.0 | 0.9 | 0.00 | 0.00 | 0.00 | 76 | 1011.7 |
| 20260906090331 | 79 | 131 | 0.0 | 0.9 | 0.00 | 0.00 | 0.00 | 76 | 1014.5 |
| 20260906090057 | 78 | 131 | 0.0 | 0.9 | 0.00 | 0.00 | 0.00 | 76 | 1011.5 |
| 20260906085828 | 79 | 130 | 0.0 | 0.9 | 0.00 | 0.00 | 0.00 | 76 | 1014.5 |
| 20260906085548 | 78 | 131 | 0.0 | 0.9 | 0.00 | 0.00 | 0.00 | 76 | 1011.5 |
| 20260906085325 | 79 | 131 | 0.0 | 0.0 | 0.00 | 0.00 | 0.00 | 76 | 1014.4 |
| 20260906085038 | 78 | 131 | 0.0 | 0.0 | 0.00 | 0.00 | 0.00 | 76 | 1011.4 |
| 20260906084823 | 79 | 130 | 0.0 | 0.0 | 0.00 | 0.00 | 0.00 | 76 | 1014.4 |
| 20260906084530 | 78 | 131 | 0.0 | 0.0 | 0.00 | 0.00 | 0.00 | 76 | 1011.4 |
| 20260906084321 | 78 | 130 | 0.0 | 0.0 | 0.00 | 0.00 | 0.00 | 76 | 1014.4 |
| 20260906084025 | 78 | 131 | 0.0 | 0.0 | 0.00 | 0.00 | 0.00 | 76 | 1011.5 |
| 20260906083819 | 78 | 131 | 0.0 | 0.0 | 0.00 | 0.00 | 0.00 | 76 | 1014.5 |
| 20260906083515 | 78 | 131 | 0.0 | 0.0 | 0.00 | 0.00 | 0.00 | 75 | 1011.5 |
| 20260906083317 | 78 | 130 | 0.0 | 0.0 | 0.00 | 0.00 | 0.00 | 75 | 1014.5 |
| 20260906083058 | 78 | 130 | 0.0 | 0.9 | 0.00 | 0.00 | 0.00 | 75 | 1011.5 |
| 20260906082814 | 79 | 131 | 0.0 | 1.7 | 0.00 | 0.00 | 0.00 | 75 | 1014.6 |
| 20260906082548 | 78 | 131 | 0.0 | 1.7 | 0.00 | 0.00 | 0.00 | 75 | 1011.7 |
| 20260906082329 | 79 | 131 | 0.0 | 1.7 | 0.00 | 0.00 | 0.00 | 75 | 1014.6 |
| 20260906082040 | 78 | 131 | 0.0 | 1.7 | 0.00 | 0.00 | 0.00 | 75 | 1011.6 |
| 20260906081847 | 79 | 131 | 0.0 | 0.0 | 0.00 | 0.00 | 0.00 | 75 | 1014.6 |
| 20260906081603 | 78 | 130 | 0.0 | 0.0 | 0.00 | 0.00 | 0.00 | 75 | 1011.7 |
| 20260906081323 | 79 | 130 | 0.0 | 0.0 | 0.00 | 0.00 | 0.00 | 75 | 1014.7 |
| 20260906081057 | 78 | 130 | 0.0 | 0.9 | 0.00 | 0.00 | 0.00 | 75 | 1011.6 |
| 20260906080821 | 79 | 131 | 0.0 | 0.9 | 0.00 | 0.00 | 0.00 | 75 | 1014.6 |
| 20260906080546 | 78 | 130 | 0.0 | 0.9 | 0.00 | 0.00 | 0.00 | 75 | 1011.7 |
| 20260906080340 | 79 | 131 | 0.0 | 1.7 | 0.00 | 0.00 | 0.00 | 75 | 1014.8 |
| 20260906080034 | 78 | 130 | 0.0 | 1.7 | 0.00 | 0.00 | 0.00 | 75 | 1011.8 |
| 20260906075830 | 79 | 131 | 0.0 | 1.7 | 0.00 | 0.00 | 0.00 | 75 | 1014.7 |
| 20260906075517 | 78 | 130 | 0.0 | 2.6 | 0.00 | 0.00 | 0.00 | 75 | 1011.8 |
| 20260906075350 | 79 | 131 | 0.0 | 2.6 | 0.00 | 0.00 | 0.00 | 75 | 1014.7 |
| 20260906075050 | 78 | 130 | 0.0 | 2.6 | 0.00 | 0.00 | 0.00 | 75 | 1011.7 |
| 20260906074826 | 79 | 130 | 0.0 | 2.6 | 0.00 | 0.00 | 0.00 | 75 | 1014.8 |
| 20260906074538 | 78 | 130 | 0.0 | 1.7 | 0.00 | 0.00 | 0.00 | 74 | 1011.9 |
| 20260906074345 | 79 | 130 | 0.0 | 1.7 | 0.00 | 0.00 | 0.00 | 74 | 1015.0 |
| 20260906074103 | 78 | 130 | 0.0 | 1.7 | 0.00 | 0.00 | 0.00 | 74 | 1012.0 |
| 20260906073822 | 79 | 131 | 0.0 | 1.7 | 0.00 | 0.00 | 0.00 | 74 | 1014.9 |
| 20260906073554 | 78 | 130 | 0.0 | 0.9 | 0.00 | 0.00 | 0.00 | 74 | 1011.9 |
| 20260906073340 | 79 | 131 | 0.0 | 0.9 | 0.00 | 0.00 | 0.00 | 74 | 1014.9 |
| 20260906073042 | 78 | 130 | 0.0 | 0.9 | 0.00 | 0.00 | 0.00 | 74 | 1012.1 |
| 20260906072831 | 79 | 130 | 0.0 | 0.9 | 0.00 | 0.00 | 0.00 | 74 | 1015.0 |
| 20260906072532 | 78 | 130 | 0.0 | 1.7 | 0.00 | 0.00 | 0.00 | 74 | 1012.1 |
| 20260906072350 | 79 | 130 | 0.0 | 1.7 | 0.00 | 0.00 | 0.00 | 74 | 1015.0 |
| 20260906072056 | 78 | 130 | 0.0 | 1.7 | 0.00 | 0.00 | 0.00 | 74 | 1012.1 |
| 20260906071827 | 79 | 130 | 0.9 | 1.7 | 0.00 | 0.00 | 0.00 | 74 | 1015.2 |
| 20260906071550 | 78 | 131 | 0.9 | 1.7 | 0.00 | 0.00 | 0.00 | 74 | 1012.3 |
| 20260906071325 | 79 | 130 | 0.9 | 1.7 | 0.00 | 0.00 | 0.00 | 74 | 1015.1 |
| 20260906071036 | 78 | 130 | 0.9 | 1.7 | 0.00 | 0.00 | 0.00 | 74 | 1012.2 |
| 20260906070823 | 79 | 130 | 0.9 | 0.9 | 0.00 | 0.00 | 0.00 | 73 | 1015.2 |
| 20260906070526 | 78 | 130 | 0.0 | 0.0 | 0.00 | 0.00 | 0.00 | 73 | 1012.1 |
| 20260906070320 | 79 | 130 | 0.0 | 0.0 | 0.00 | 0.00 | 0.00 | 73 | 1015.0 |
| 20260906070008 | 79 | 131 | 0.0 | 0.0 | 0.00 | 0.00 | 0.00 | 72 | 1012.3 |
| 20260906065818 | 79 | 131 | 0.0 | 0.0 | 0.00 | 0.00 | 0.00 | 72 | 1015.3 |
| 20260906065602 | 79 | 130 | 0.0 | 0.0 | 0.00 | 0.00 | 0.00 | 72 | 1012.3 |
| 20260906065317 | 79 | 130 | 0.0 | 0.0 | 0.00 | 0.00 | 0.00 | 72 | 1015.3 |
| 20260906065050 | 79 | 130 | 0.0 | 0.0 | 0.00 | 0.00 | 0.00 | 72 | 1012.3 |
| 20260906064815 | 79 | 130 | 0.0 | 0.0 | 0.00 | 0.00 | 0.00 | 72 | 1015.2 |
| 20260906064541 | 79 | 131 | 0.0 | 0.0 | 0.00 | 0.00 | 0.00 | 72 | 1012.3 |
| 20260906064353 | 79 | 130 | 0.0 | 0.0 | 0.00 | 0.00 | 0.00 | 71 | 1015.2 |
| 20260906064006 | 79 | 131 | 0.0 | 0.0 | 0.00 | 0.00 | 0.00 | 71 | 1012.3 |
| 20260906063850 | 79 | 130 | 0.0 | 0.0 | 0.00 | 0.00 | 0.00 | 71 | 1015.3 |
| 20260906063541 | 79 | 131 | 0.0 | 0.9 | 0.00 | 0.00 | 0.00 | 70 | 1012.2 |
| 20260906063325 | 80 | 130 | 0.0 | 0.9 | 0.00 | 0.00 | 0.00 | 70 | 1015.3 |
| 20260906063038 | 79 | 129 | 0.0 | 0.9 | 0.00 | 0.00 | 0.00 | 70 | 1012.2 |
| 20260906062821 | 80 | 130 | 0.9 | 0.9 | 0.00 | 0.00 | 0.00 | 70 | 1015.2 |
| 20260906062529 | 79 | 131 | 0.0 | 0.9 | 0.00 | 0.00 | 0.00 | 70 | 1012.3 |
| 20260906062319 | 80 | 131 | 0.0 | 0.0 | 0.00 | 0.00 | 0.00 | 70 | 1015.3 |
| 20260906062027 | 80 | 130 | 0.0 | 0.0 | 0.00 | 0.00 | 0.00 | 69 | 1012.4 |
| 20260906061819 | 80 | 131 | 0.0 | 0.0 | 0.00 | 0.00 | 0.00 | 69 | 1015.3 |
| 20260906061516 | 80 | 130 | 0.0 | 0.0 | 0.00 | 0.00 | 0.00 | 69 | 1012.5 |
| 20260906061316 | 80 | 131 | 0.0 | 0.0 | 0.00 | 0.00 | 0.00 | 69 | 1015.5 |
| 20260906061001 | 80 | 130 | 0.0 | 0.9 | 0.00 | 0.00 | 0.00 | 70 | 1012.5 |
| 20260906060815 | 80 | 131 | 0.0 | 1.7 | 0.00 | 0.00 | 0.00 | 70 | 1015.6 |
| 20260906060555 | 80 | 131 | 0.0 | 1.7 | 0.00 | 0.00 | 0.00 | 70 | 1012.6 |
| 20260906060314 | 80 | 131 | 0.0 | 1.7 | 0.00 | 0.00 | 0.00 | 70 | 1015.6 |
| 20260906060049 | 80 | 131 | 0.0 | 1.7 | 0.00 | 0.00 | 0.00 | 70 | 1012.5 |
| 20260906055848 | 81 | 131 | 0.9 | 1.7 | 0.00 | 0.00 | 0.00 | 70 | 1015.5 |
| 20260906055603 | 80 | 130 | 0.0 | 1.7 | 0.00 | 0.00 | 0.00 | 70 | 1012.6 |
| 20260906055325 | 81 | 130 | 0.9 | 1.7 | 0.00 | 0.00 | 0.00 | 69 | 1015.5 |
| 20260906055054 | 80 | 131 | 0.0 | 1.7 | 0.00 | 0.00 | 0.00 | 69 | 1012.5 |
| 20260906054823 | 81 | 131 | 0.0 | 1.7 | 0.00 | 0.00 | 0.00 | 69 | 1015.5 |
| 20260906054558 | 80 | 131 | 0.0 | 1.7 | 0.00 | 0.00 | 0.00 | 69 | 1012.5 |
| 20260906054320 | 81 | 130 | 0.0 | 1.7 | 0.00 | 0.00 | 0.00 | 69 | 1015.5 |
| 20260906054038 | 81 | 130 | 0.0 | 1.7 | 0.00 | 0.00 | 0.00 | 68 | 1012.6 |
| 20260906053839 | 81 | 130 | 0.0 | 2.6 | 0.00 | 0.00 | 0.00 | 68 | 1015.6 |
| 20260906053601 | 81 | 131 | 0.0 | 2.6 | 0.00 | 0.00 | 0.00 | 68 | 1012.5 |
| 20260906053315 | 81 | 131 | 0.9 | 2.6 | 0.00 | 0.00 | 0.00 | 68 | 1015.6 |
| 20260906053059 | 81 | 131 | 0.9 | 2.6 | 0.00 | 0.00 | 0.00 | 68 | 1012.7 |
| 20260906052826 | 81 | 130 | 0.9 | 2.6 | 0.00 | 0.00 | 0.00 | 68 | 1015.6 |
| 20260906052550 | 81 | 131 | 0.9 | 2.6 | 0.00 | 0.00 | 0.00 | 68 | 1012.7 |
| 20260906052345 | 82 | 131 | 0.9 | 2.6 | 0.00 | 0.00 | 0.00 | 68 | 1015.7 |
| 20260906052012 | 81 | 131 | 0.9 | 2.6 | 0.00 | 0.00 | 0.00 | 68 | 1012.7 |
| 20260906051823 | 82 | 130 | 1.7 | 2.6 | 0.00 | 0.00 | 0.00 | 68 | 1015.6 |
| 20260906051503 | 81 | 100 | 0.0 | 2.6 | 0.00 | 0.00 | 0.00 | 67 | 1012.8 |
| 20260906051319 | 82 | 101 | 1.7 | 2.6 | 0.00 | 0.00 | 0.00 | 67 | 1015.7 |
| 20260906051058 | 82 | 104 | 0.9 | 2.6 | 0.00 | 0.00 | 0.00 | 67 | 1012.7 |
| 20260906050815 | 82 | 111 | 0.9 | 4.3 | 0.00 | 0.00 | 0.00 | 67 | 1015.7 |
| 20260906050549 | 82 | 133 | 0.0 | 4.3 | 0.00 | 0.00 | 0.00 | 67 | 1012.9 |
| 20260906050332 | 82 | 133 | 0.9 | 4.3 | 0.00 | 0.00 | 0.00 | 67 | 1015.9 |
| 20260906050047 | 82 | 133 | 1.7 | 2.6 | 0.00 | 0.00 | 0.00 | 66 | 1013.0 |
| 20260906045840 | 82 | 133 | 1.7 | 5.2 | 0.00 | 0.00 | 0.00 | 66 | 1015.9 |
| 20260906045545 | 82 | 133 | 0.0 | 5.2 | 0.00 | 0.00 | 0.00 | 66 | 1012.8 |
| 20260906045337 | 83 | 133 | 0.9 | 7.0 | 0.00 | 0.00 | 0.00 | 66 | 1015.9 |
| 20260906045017 | 82 | 133 | 1.7 | 7.0 | 0.00 | 0.00 | 0.00 | 66 | 1012.9 |
| 20260906044814 | 83 | 100 | 1.7 | 7.0 | 0.00 | 0.00 | 0.00 | 65 | 1015.8 |
| 20260906044609 | 82 | 104 | 1.7 | 7.0 | 0.00 | 0.00 | 0.00 | 65 | 1012.8 |
| 20260906044352 | 83 | 80 | 1.7 | 6.1 | 0.00 | 0.00 | 0.00 | 65 | 1015.9 |
| 20260906044032 | 83 | 73 | 0.9 | 6.1 | 0.00 | 0.00 | 0.00 | 65 | 1012.9 |
| 20260906043829 | 83 | 137 | 1.7 | 7.8 | 0.00 | 0.00 | 0.00 | 65 | 1015.8 |
| 20260906043514 | 83 | 118 | 1.7 | 7.8 | 0.00 | 0.00 | 0.00 | 65 | 1012.8 |
| 20260906043347 | 83 | 113 | 3.5 | 7.8 | 0.00 | 0.00 | 0.00 | 64 | 1015.7 |
| 20260906043047 | 83 | 154 | 3.5 | 7.0 | 0.00 | 0.00 | 0.00 | 64 | 1012.8 |
| 20260906042823 | 84 | 162 | 3.5 | 7.0 | 0.00 | 0.00 | 0.00 | 64 | 1015.7 |
| 20260906042536 | 83 | 150 | 4.3 | 7.8 | 0.00 | 0.00 | 0.00 | 64 | 1012.7 |
| 20260906042341 | 84 | 142 | 4.3 | 7.8 | 0.00 | 0.00 | 0.00 | 64 | 1015.7 |
| 20260906042100 | 83 | 120 | 2.6 | 7.8 | 0.00 | 0.00 | 0.00 | 63 | 1012.7 |
| 20260906041838 | 84 | 119 | 5.2 | 7.8 | 0.00 | 0.00 | 0.00 | 63 | 1015.7 |
| 20260906041531 | 83 | 143 | 2.6 | 7.8 | 0.00 | 0.00 | 0.00 | 63 | 1012.8 |
| 20260906041315 | 84 | 87 | 2.6 | 7.8 | 0.00 | 0.00 | 0.00 | 63 | 1015.7 |
| 20260906041013 | 84 | 142 | 3.5 | 8.7 | 0.00 | 0.00 | 0.00 | 62 | 1012.8 |
| 20260906040833 | 84 | 133 | 4.3 | 8.7 | 0.00 | 0.00 | 0.00 | 62 | 1015.8 |
| 20260906040504 | 84 | 131 | 5.2 | 8.7 | 0.00 | 0.00 | 0.00 | 62 | 1012.9 |
| 20260906040330 | 84 | 118 | 4.3 | 8.7 | 0.00 | 0.00 | 0.00 | 62 | 1015.7 |
| 20260906040059 | 84 | 149 | 5.2 | 9.6 | 0.00 | 0.00 | 0.00 | 62 | 1012.7 |
| 20260906035828 | 85 | 165 | 5.2 | 11.3 | 0.00 | 0.00 | 0.00 | 62 | 1015.7 |
| 20260906035525 | 84 | 118 | 5.2 | 11.3 | 0.00 | 0.00 | 0.00 | 61 | 1012.7 |
| 20260906035326 | 85 | 148 | 5.2 | 11.3 | 0.00 | 0.00 | 0.00 | 61 | 1015.7 |
| 20260906035008 | 84 | 116 | 6.1 | 11.3 | 0.00 | 0.00 | 0.00 | 61 | 1012.8 |
| 20260906034824 | 85 | 122 | 7.0 | 11.3 | 0.00 | 0.00 | 0.00 | 61 | 1015.7 |
| 20260906034615 | 84 | 101 | 5.2 | 9.6 | 0.00 | 0.00 | 0.00 | 61 | 1012.8 |
| 20260906034322 | 85 | 149 | 3.5 | 8.7 | 0.00 | 0.00 | 0.00 | 61 | 1015.7 |
| 20260906034057 | 84 | 131 | 2.6 | 8.7 | 0.00 | 0.00 | 0.00 | 61 | 1012.7 |
| 20260906033820 | 85 | 143 | 2.6 | 8.7 | 0.00 | 0.00 | 0.00 | 61 | 1015.7 |
| 20260906033549 | 84 | 116 | 2.6 | 7.0 | 0.00 | 0.00 | 0.00 | 61 | 1012.7 |
| 20260906033319 | 85 | 127 | 2.6 | 8.7 | 0.00 | 0.00 | 0.00 | 61 | 1015.5 |
| 20260906033102 | 85 | 118 | 1.7 | 8.7 | 0.00 | 0.00 | 0.00 | 61 | 1012.5 |
| 20260906032838 | 85 | 146 | 2.6 | 8.7 | 0.00 | 0.00 | 0.00 | 61 | 1015.4 |
| 20260906032528 | 85 | 100 | 3.5 | 8.7 | 0.00 | 0.00 | 0.00 | 61 | 1012.5 |
| 20260906032315 | 85 | 114 | 1.7 | 5.2 | 0.00 | 0.00 | 0.00 | 60 | 1015.3 |
| 20260906032018 | 85 | 125 | 1.7 | 5.2 | 0.00 | 0.00 | 0.00 | 60 | 1012.4 |
| 20260906031829 | 85 | 129 | 2.6 | 5.2 | 0.00 | 0.00 | 0.00 | 60 | 1015.3 |
| 20260906031554 | 85 | 121 | 1.7 | 6.1 | 0.00 | 0.00 | 0.00 | 60 | 1012.3 |
| 20260906031348 | 85 | 133 | 1.7 | 6.1 | 0.00 | 0.00 | 0.00 | 60 | 1015.1 |
| 20260906031028 | 85 | 133 | 1.7 | 6.1 | 0.00 | 0.00 | 0.00 | 60 | 1012.2 |
| 20260906030825 | 85 | 115 | 3.5 | 6.1 | 0.00 | 0.00 | 0.00 | 60 | 1015.0 |
| 20260906030515 | 85 | 96 | 1.7 | 6.1 | 0.00 | 0.00 | 0.00 | 60 | 1012.2 |
| 20260906030324 | 85 | 88 | 2.6 | 6.1 | 0.00 | 0.00 | 0.00 | 59 | 1015.0 |
| 20260906030005 | 85 | 104 | 2.6 | 5.2 | 0.00 | 0.00 | 0.00 | 59 | 1012.2 |
| 20260906025822 | 85 | 124 | 1.7 | 5.2 | 0.00 | 0.00 | 0.00 | 59 | 1014.9 |
| 20260906025538 | 85 | 141 | 1.7 | 5.2 | 0.00 | 0.00 | 0.00 | 59 | 1012.1 |
| 20260906025322 | 86 | 116 | 1.7 | 5.2 | 0.00 | 0.00 | 0.00 | 58 | 1015.0 |
| 20260906025032 | 85 | 95 | 1.7 | 5.2 | 0.00 | 0.00 | 0.00 | 58 | 1012.1 |
| 20260906024821 | 86 | 115 | 1.7 | 5.2 | 0.00 | 0.00 | 0.00 | 58 | 1014.8 |
| 20260906024523 | 85 | 116 | 0.9 | 5.2 | 0.00 | 0.00 | 0.00 | 57 | 1012.0 |
| 20260906024320 | 86 | 117 | 1.7 | 5.2 | 0.00 | 0.00 | 0.00 | 57 | 1014.7 |
| 20260906024022 | 86 | 129 | 0.9 | 3.5 | 0.00 | 0.00 | 0.00 | 57 | 1011.9 |
| 20260906023817 | 86 | 138 | 1.7 | 3.5 | 0.00 | 0.00 | 0.00 | 57 | 1014.6 |
| 20260906023502 | 86 | 131 | 1.7 | 2.6 | 0.00 | 0.00 | 0.00 | 56 | 1011.7 |
| 20260906023336 | 86 | 123 | 1.7 | 2.6 | 0.00 | 0.00 | 0.00 | 56 | 1014.5 |
| 20260906023036 | 86 | 125 | 0.0 | 3.5 | 0.00 | 0.00 | 0.00 | 56 | 1011.4 |
| 20260906022814 | 87 | 126 | 1.7 | 5.2 | 0.00 | 0.00 | 0.00 | 56 | 1014.3 |
| 20260906022530 | 86 | 116 | 0.0 | 5.2 | 0.00 | 0.00 | 0.00 | 55 | 1011.4 |
| 20260906022338 | 87 | 117 | 1.7 | 5.2 | 0.00 | 0.00 | 0.00 | 55 | 1014.2 |
| 20260906022052 | 86 | 145 | 1.7 | 5.2 | 0.00 | 0.00 | 0.00 | 55 | 1011.2 |
| 20260906021831 | 87 | 116 | 2.6 | 6.1 | 0.00 | 0.00 | 0.00 | 55 | 1014.1 |
| 20260906021544 | 86 | 130 | 1.7 | 6.1 | 0.00 | 0.00 | 0.00 | 54 | 1011.0 |
| 20260906021330 | 87 | 138 | 1.7 | 6.1 | 0.00 | 0.00 | 0.00 | 54 | 1014.1 |
| 20260906021037 | 86 | 116 | 1.7 | 6.1 | 0.00 | 0.00 | 0.00 | 54 | 1011.2 |
| 20260906020829 | 87 | 135 | 2.6 | 5.2 | 0.00 | 0.00 | 0.00 | 53 | 1014.0 |
| 20260906020529 | 87 | 118 | 0.9 | 3.5 | 0.00 | 0.00 | 0.00 | 53 | 1011.0 |
| 20260906020326 | 87 | 127 | 0.0 | 0.0 | 0.00 | 0.00 | 0.00 | 52 | 1014.0 |
| 20260906020011 | 87 | 114 | 0.0 | 0.0 | 0.00 | 0.00 | 0.00 | 52 | 1011.1 |
| 20260906015826 | 87 | 133 | 0.0 | 0.0 | 0.00 | 0.00 | 0.00 | 51 | 1013.8 |
| 20260906015504 | 87 | 111 | 0.0 | 0.0 | 0.00 | 0.00 | 0.00 | 51 | 1010.9 |
| 20260906015325 | 88 | 112 | 0.0 | 0.0 | 0.00 | 0.00 | 0.00 | 51 | 1013.8 |
| 20260906015100 | 87 | 101 | 0.0 | 0.0 | 0.00 | 0.00 | 0.00 | 51 | 1010.9 |
| 20260906014844 | 88 | 100 | 0.0 | 0.0 | 0.00 | 0.00 | 0.00 | 50 | 1013.8 |
| 20260906014532 | 88 | 104 | 0.0 | 0.0 | 0.00 | 0.00 | 0.00 | 50 | 1010.9 |
| 20260906014323 | 88 | 129 | 0.0 | 0.0 | 0.00 | 0.00 | 0.00 | 50 | 1013.7 |
| 20260906014025 | 88 | 163 | 0.0 | 0.0 | 0.00 | 0.00 | 0.00 | 49 | 1010.7 |
| 20260906013820 | 88 | 163 | 0.0 | 0.0 | 0.00 | 0.00 | 0.00 | 48 | 1013.6 |
| 20260906013521 | 88 | 163 | 0.0 | 0.0 | 0.00 | 0.00 | 0.00 | 48 | 1010.6 |
| 20260906013339 | 89 | 163 | 0.0 | 0.0 | 0.00 | 0.00 | 0.00 | 48 | 1013.5 |
| 20260906013109 | 88 | 163 | 0.0 | 0.0 | 0.00 | 0.00 | 0.00 | 48 | 1010.6 |
| 20260906012832 | 89 | 163 | 0.0 | 0.0 | 0.00 | 0.00 | 0.00 | 47 | 1013.4 |
| 20260906012553 | 89 | 163 | 0.0 | 0.0 | 0.00 | 0.00 | 0.00 | 47 | 1010.6 |
| 20260906012351 | 89 | 164 | 0.0 | 0.0 | 0.00 | 0.00 | 0.00 | 47 | 1013.4 |
| 20260906012026 | 89 | 163 | 0.0 | 0.0 | 0.00 | 0.00 | 0.00 | 47 | 1010.5 |
| 20260906011829 | 90 | 164 | 0.0 | 0.0 | 0.00 | 0.00 | 0.00 | 47 | 1013.3 |
| 20260906011515 | 89 | 163 | 0.0 | 0.0 | 0.00 | 0.00 | 0.00 | 47 | 1010.4 |
| 20260906011327 | 90 | 164 | 0.0 | 0.0 | 0.00 | 0.00 | 0.00 | 46 | 1013.3 |
| 20260906011003 | 89 | 163 | 0.0 | 0.0 | 0.00 | 0.00 | 0.00 | 46 | 1010.5 |
| 20260906010825 | 90 | 163 | 0.0 | 0.0 | 0.00 | 0.00 | 0.00 | 46 | 1013.2 |
| 20260906010538 | 90 | 163 | 0.0 | 0.0 | 0.00 | 0.00 | 0.00 | 46 | 1010.4 |
| 20260906010344 | 90 | 163 | 0.0 | 0.0 | 0.00 | 0.00 | 0.00 | 46 | 1013.3 |
| 20260906010002 | 90 | 164 | 0.0 | 0.0 | 0.00 | 0.00 | 0.00 | 46 | 1010.4 |
| 20260906005822 | 91 | 164 | 0.0 | 0.0 | 0.00 | 0.00 | 0.00 | 45 | 1013.3 |
| 20260906005556 | 90 | 164 | 0.0 | 0.0 | 0.00 | 0.00 | 0.00 | 45 | 1010.4 |
| 20260906005321 | 91 | 163 | 0.0 | 0.0 | 0.00 | 0.00 | 0.00 | 45 | 1013.2 |
| 20260906005048 | 91 | 163 | 0.0 | 0.0 | 0.00 | 0.00 | 0.00 | 45 | 1010.3 |
| 20260906004820 | 91 | 133 | 0.0 | 0.0 | 0.00 | 0.00 | 0.00 | 45 | 1013.2 |
| 20260906004538 | 91 | 145 | 0.0 | 0.0 | 0.00 | 0.00 | 0.00 | 45 | 1010.4 |
| 20260906004319 | 92 | 135 | 0.0 | 0.0 | 0.00 | 0.00 | 0.00 | 45 | 1013.2 |
| 20260906004030 | 91 | 153 | 0.0 | 0.0 | 0.00 | 0.00 | 0.00 | 44 | 1010.4 |
| 20260906003818 | 92 | 152 | 0.0 | 0.0 | 0.00 | 0.00 | 0.00 | 44 | 1013.2 |
| 20260906003520 | 92 | 139 | 0.0 | 0.0 | 0.00 | 0.00 | 0.00 | 44 | 1010.4 |
| 20260906003317 | 92 | 147 | 0.0 | 0.0 | 0.00 | 0.00 | 0.00 | 44 | 1013.3 |
| 20260906003016 | 92 | 142 | 0.0 | 0.0 | 0.00 | 0.00 | 0.00 | 44 | 1010.4 |
| 20260906002815 | 93 | 126 | 0.0 | 0.0 | 0.00 | 0.00 | 0.00 | 44 | 1013.2 |
| 20260906002505 | 92 | 144 | 0.0 | 0.0 | 0.00 | 0.00 | 0.00 | 44 | 1010.5 |
| 20260906002350 | 93 | 116 | 0.0 | 0.0 | 0.00 | 0.00 | 0.00 | 44 | 1013.2 |
| 20260906002042 | 93 | 72 | 0.0 | 0.0 | 0.00 | 0.00 | 0.00 | 44 | 1010.4 |
| 20260906001826 | 93 | 120 | 0.0 | 0.0 | 0.00 | 0.00 | 0.00 | 44 | 1013.2 |
| 20260906001538 | 93 | 143 | 0.0 | 0.0 | 0.00 | 0.00 | 0.00 | 43 | 1010.3 |
| 20260906001324 | 93 | 117 | 0.0 | 0.0 | 0.00 | 0.00 | 0.00 | 43 | 1013.1 |
| 20260906001027 | 93 | 132 | 0.0 | 0.0 | 0.00 | 0.00 | 0.00 | 43 | 1010.3 |
| 20260906000842 | 93 | 161 | 0.0 | 0.0 | 0.00 | 0.00 | 0.00 | 43 | 1013.2 |
| 20260906000553 | 93 | 144 | 0.0 | 0.0 | 0.00 | 0.00 | 0.00 | 43 | 1010.3 |
| 20260906000340 | 94 | 152 | 0.0 | 0.0 | 0.00 | 0.00 | 0.00 | 43 | 1013.2 |
| 20260906000040 | 93 | 138 | 0.0 | 0.0 | 0.00 | 0.00 | 0.00 | 43 | 1010.3 |
| 20260905235830 | 94 | 152 | 0.0 | 0.0 | 0.00 | 0.00 | 0.00 | 43 | 1013.0 |
| 20260905235531 | 93 | 133 | 0.0 | 0.0 | 0.00 | 0.00 | 0.00 | 43 | 1010.3 |
| 20260905235329 | 94 | 139 | 0.0 | 0.0 | 0.00 | 0.00 | 0.00 | 43 | 1013.1 |
| 20260905235014 | 93 | 135 | 0.0 | 0.0 | 0.00 | 0.00 | 0.00 | 43 | 1010.3 |
| 20260905234828 | 94 | 110 | 0.0 | 0.0 | 0.00 | 0.00 | 0.00 | 43 | 1013.1 |
| 20260905234505 | 93 | 156 | 0.0 | 0.0 | 0.00 | 0.00 | 0.00 | 43 | 1010.2 |
| 20260905234326 | 94 | 142 | 0.0 | 0.0 | 0.00 | 0.00 | 0.00 | 43 | 1013.2 |
| 20260905234056 | 94 | 140 | 0.0 | 0.0 | 0.00 | 0.00 | 0.00 | 43 | 1010.4 |
| 20260905233844 | 94 | 137 | 0.0 | 0.0 | 0.00 | 0.00 | 0.00 | 42 | 1013.2 |
| 20260905233526 | 94 | 146 | 0.0 | 0.0 | 0.00 | 0.00 | 0.00 | 42 | 1010.4 |
| 20260905233321 | 94 | 147 | 0.0 | 0.0 | 0.00 | 0.00 | 0.00 | 42 | 1013.2 |
| 20260905233009 | 94 | 170 | 0.0 | 0.0 | 0.00 | 0.00 | 0.00 | 42 | 1010.3 |
| 20260905232819 | 94 | 145 | 0.0 | 0.0 | 0.00 | 0.00 | 0.00 | 42 | 1013.2 |
| 20260905232502 | 94 | 162 | 0.0 | 0.0 | 0.00 | 0.00 | 0.00 | 42 | 1010.2 |
| 20260905232317 | 95 | 79 | 0.0 | 0.0 | 0.00 | 0.00 | 0.00 | 42 | 1013.0 |
| 20260905232058 | 94 | 111 | 0.0 | 0.0 | 0.00 | 0.00 | 0.00 | 42 | 1010.2 |